Location: Mt. Cuba Astronomical Observatory
(39.8100°N, 75.6300°W)
Time: 02:10:54
(UTC-04:00)

Daily predictions for brighter satellites

Satellite Brightness Start Highest point End
(mag) Time Altitude Azimuth Time Altitude Azimuth Time Altitude Azimuth
Cosmos 44 Rocket 3.7 00:03:45 45° WSW 00:05:10 63° WNW 00:10:23 10° NNE
NOSS 2-3 (D) 4.4 00:05:33 40° WSW 00:07:11 60° NW 00:12:46 10° NNE
Cosmos 389 Rocket 3.9 00:04:21 10° NNW 00:06:44 36° NW 00:06:44 36° NW
Terra 3.7 00:09:58 19° WSW 00:10:46 19° W 00:14:11 10° NW
In-Cosmos 22 Rocket 4.2 00:11:15 61° SW 00:12:12 76° W 00:18:01 10° N
Okean 1-7 3.6 00:08:31 10° NNW 00:12:15 49° WNW 00:12:15 49° WNW
ALOS 2 3.2 00:13:37 49° NE 00:13:37 49° NE 00:17:30 10° N
Cosmos 158 Rocket 3.8 00:08:01 10° NNW 00:13:18 83° WSW 00:13:25 82° SW
GEOS 3 Rocket 4.4 00:13:50 35° E 00:15:19 44° NE 00:20:14 10° NNW
Uosat 12 SS-18 rocket 4.3 00:16:27 79° WNW 00:16:29 79° WNW 00:21:00 10° NNE
Meteor 2-3 Rocket 3.7 00:17:03 62° SW 00:17:57 75° W 00:23:41 10° N
SL-08 ROCKET BODY 4.4 00:23:36 63° SSW 00:24:40 82° W 00:30:51 10° N
Meteor 2-10 Rocket 3.6 00:22:24 10° N 00:28:05 84° E 00:28:33 75° SSE
Cosmos 2084 Rocket 4.4 00:28:49 41° NNW 00:28:49 41° NNW 00:31:51 10° NNE
Cosmos 2263 Rocket 3.4 00:29:49 29° E 00:29:49 29° E 00:34:00 10° NE
Meteor 1-10 Rocket 4.2 00:26:48 10° N 00:32:46 74° E 00:33:24 68° SE
Cosmos 921 Rocket 3.8 00:37:04 45° NNE 00:37:04 45° NNE 00:40:06 10° NNE
Cosmos 1356 Rocket 4.2 00:40:30 47° N 00:40:30 47° N 00:43:29 10° N
Lacrosse 4 Rocket 3.7 00:38:03 10° WNW 00:40:03 17° W 00:40:03 17° W
Cosmos 1674 Rocket 4.0 00:38:44 10° N 00:42:28 62° N 00:42:28 62° N
Cosmos 1607 3.7 00:38:47 10° NNW 00:44:58 88° ENE 00:45:42 71° SE
SL-16 R/B 3.7 00:41:51 10° NW 00:46:11 23° W 00:46:17 23° WSW
ATLAS 3B R/B 3.7 00:40:32 10° NW 00:46:15 29° WSW 00:46:35 29° WSW
Nadezhda 3 Rocket 3.8 00:43:16 10° N 00:49:32 84° E 00:50:20 70° SSE
CZ-2C R/B 3.2 00:45:28 10° NNE 00:50:05 44° E 00:50:05 44° E
Cosmos 1975 Rocket 4.3 00:51:09 10° N 00:54:40 33° ENE 00:54:40 33° ENE
Cosmos 44 4.1 00:57:49 45° W 00:58:51 52° NW 01:04:11 10° NNE
Cosmos 1782 4.0 00:56:25 10° NNW 00:59:07 40° NNW 00:59:07 40° NNW
Cosmos 1908 Rocket 4.1 01:02:05 55° NNE 01:02:05 55° NNE 01:05:32 10° N
USA 238 DEB 3.9 00:54:48 10° NW 01:01:35 52° WSW 01:02:06 51° SW
USA 238 3.9 00:54:54 10° NW 01:01:40 52° WSW 01:02:13 51° SW
Cosmos 1340 Rocket 4.5 01:05:03 27° NW 01:05:03 27° NW 01:07:46 10° NNW
Cosmos 1943 3.1 01:02:07 10° NNW 01:07:49 83° ENE 01:08:08 78° ESE
Okean 3 4.2 01:05:20 10° N 01:08:50 49° NE 01:08:50 49° NE
Geosat 4.0 01:04:53 10° NNE 01:09:37 74° ENE 01:09:37 74° ENE
Landsat 5 4.4 01:10:52 44° WNW 01:10:52 44° WNW 01:14:27 10° NNW
BREEZE-M DEB (TANK) 3.3 01:04:11 10° WNW 01:09:06 47° NW 01:09:06 47° NW
Cosmos 1238 Rocket 4.4 01:14:53 10° NNW 01:16:55 29° NNW 01:16:55 29° NNW
Cosmos 1295 Rocket 4.4 01:17:48 70° S 01:18:36 85° E 01:24:59 10° N
Cosmos 2154 Rocket 4.4 01:17:41 48° WSW 01:18:47 53° W 01:24:56 10° N
H-2A R/B 4.0 01:15:11 10° N 01:18:48 29° WNW 01:18:48 29° WNW
SeaSat 1 4.0 01:23:17 24° W 01:23:17 24° W 01:26:17 10° NW
Cosmos 1606 4.1 01:19:10 10° NNW 01:21:35 35° NNW 01:21:35 35° NNW
Meteor 1-27 Rocket 3.7 01:20:03 10° NNW 01:25:49 67° W 01:26:02 66° WSW
Helios 1A Rocket 4.0 01:23:25 10° N 01:26:47 40° NW 01:26:47 40° NW
RESURS DK-1 3.3 01:32:36 46° NE 01:32:36 46° NE 01:35:36 10° NNE
Cosmos 1408 4.0 01:33:18 37° NNW 01:33:18 37° NNW 01:35:44 10° N
CZ-4C R/B 2.9 01:25:13 10° NW 01:32:20 64° WSW 01:33:37 56° SSW
CZ-4B R/B 4.4 01:37:17 11° WNW 01:37:17 11° WNW 01:37:33 10° NW
NOSS 3-2 (C) 3.9 01:27:50 10° NW 01:35:26 86° WSW 01:38:05 47° SSE
Cosmos 1624 Rocket 4.2 01:35:46 58° E 01:35:46 58° E 01:40:46 10° NNE
Meteor 1-14 Rocket 4.4 01:39:42 57° SE 01:40:23 62° E 01:46:11 10° NNE
Meteor 2-13 Rocket 4.4 01:40:08 61° WSW 01:40:56 67° W 01:47:04 10° N
Cosmos 1867 3.5 01:40:01 10° NW 01:45:23 77° WSW 01:45:23 77° WSW
CZ-2C R/B 3.1 01:47:42 73° SSW 01:48:10 79° WSW 01:53:47 10° NNW
Cosmos 1959 Rocket 4.4 01:53:04 61° SW 01:54:03 73° W 02:00:16 10° N
Cosmos 1825 3.9 01:57:17 26° NW 01:57:17 26° NW 01:59:38 10° NNW
NOSS 3-4 (A) 4.2 01:54:26 34° WSW 01:56:52 49° NW 02:03:16 10° NNE
NOSS 3-4 (C) 4.2 01:54:33 34° WSW 01:56:58 50° NW 02:03:22 10° NNE
NOSS 3-2 (A) 4.1 01:49:37 10° NW 01:56:59 55° WSW 01:58:20 50° SSW
Cosmos 1452 Rocket 4.4 01:57:07 35° ESE 01:57:27 35° E 02:02:12 10° NE
SL-08 R/B 4.5 01:57:58 59° SW 01:58:59 69° W 02:05:19 10° N
SL-8 Rocket 4.3 02:00:20 47° WSW 02:01:27 53° W 02:07:39 10° N
BREEZE-M DEB (TANK) 3.7 01:53:13 10° WNW 02:04:58 74° SW 02:05:38 65° SSE
Meteor 2-8 Rocket 4.3 01:58:55 10° N 02:05:03 88° E 02:06:14 61° S
Cosmos 1242 Rocket 4.0 02:03:29 10° N 02:05:38 35° N 02:05:38 35° N
Cosmos 1844 Rocket 3.3 02:08:12 41° SE 02:08:55 43° ESE 02:14:15 10° NE
Cosmos 1339 Rocket 4.3 02:03:33 10° N 02:09:39 87° E 02:10:55 59° SSE
Gbstr 26 Del rocket 3.8 02:13:29 40° ENE 02:13:29 40° ENE 02:16:06 10° ENE
Cosmos 1812 3.8 02:08:41 10° N 02:12:12 40° ENE 02:12:12 40° ENE
Cosmos 2263 Rocket 3.1 02:11:29 33° W 02:12:54 38° WNW 02:18:12 10° N
Cosmos 2218 Rocket 4.4 02:14:09 44° WSW 02:15:22 50° WNW 02:21:32 10° N
Okean 2 Rocket 4.4 02:15:39 30° WNW 02:15:39 30° WNW 02:19:23 10° NNW
Cosmos 1190 Rocket 3.8 02:17:55 10° NNW 02:23:09 80° WSW 02:23:36 73° SSW
Cosmos 2366 rocket 4.4 02:24:58 41° WSW 02:26:12 46° WNW 02:32:09 10° N
Cosmos 1844 4.3 02:25:12 40° SE 02:26:22 45° ESE 02:31:49 10° NE
ATLAS 5 CENTAUR R/B 4.2 02:23:15 10° NNW 02:28:25 30° NE 02:33:54 10° ESE
Cosmos 967 Rocket 4.5 02:27:34 52° SW 02:29:17 86° WNW 02:35:48 10° NNE
Cosmos 1300 Rocket 3.6 02:29:48 64° ESE 02:29:54 65° E 02:34:15 10° NNE
CZ-2C R/B 4.2 02:26:31 10° NNW 02:30:23 22° WNW 02:31:36 20° W
SL-08 R/B 4.2 02:29:13 30° SE 02:31:11 47° ENE 02:35:51 10° N
Abrixas rocket 4.3 02:31:34 23° NW 02:32:17 24° NNW 02:35:08 10° NE
Cosmos 2056 Rocket 4.1 02:32:51 41° W 02:33:44 45° WNW 02:38:45 10° N
Cosmos 407 Rocket 3.3 02:30:42 10° NNW 02:35:53 77° WSW 02:36:34 65° SSW
Cosmos 2278 Rocket 3.2 02:36:48 31° SE 02:38:25 37° ESE 02:43:36 10° NE
Cosmos 724 4.3 02:35:54 10° NNW 02:42:03 79° WSW 02:44:32 39° SSE
NOSS 2-2 (E) 3.6 02:43:13 62° SE 02:43:22 62° ESE 02:48:03 10° NE
AQUA 4.2 02:39:52 10° NNE 02:44:34 55° E 02:45:34 45° SE
Cosmos 1536 Rocket 4.2 02:40:48 10° NNW 02:44:35 42° WNW 02:44:35 42° WNW
COSMOS 2406 3.2 02:39:57 10° NNW 02:45:40 63° WSW 02:46:47 52° SSW
Cosmos 676 Rocket 3.8 02:42:20 10° NNW 02:47:32 81° WSW 02:48:42 55° S
USA 161 4.1 02:49:31 15° E 02:50:21 17° ENE 02:52:21 10° NNE
Cosmos 1461 3.5 02:50:09 50° SE 02:50:44 53° ESE 02:55:16 10° NE
Okean 1 3.3 02:46:50 10° N 02:50:39 73° WNW 02:50:39 73° WNW
SL-27 R/B 3.7 02:52:28 10° NNW 02:54:52 33° NW 02:54:52 33° NW
Iridium 4 Rocket 4.1 02:52:13 10° NNW 02:56:44 39° W 02:57:15 38° WSW
MINOTAUR IV R/B 4.5 02:59:36 64° SSW 03:00:17 86° ESE 03:04:47 10° NNE
Landsat 4 4.3 03:01:34 43° WNW 03:01:34 43° WNW 03:04:39 10° NNW
Cosmos 1602 3.7 03:03:09 64° SE 03:03:32 70° E 03:07:22 10° NNE
USA 234 3.4 02:57:37 10° SE 03:04:08 77° NE 03:10:42 10° NW
CENTAUR R/B 3.0 03:02:41 10° NW 03:10:34 77° WSW 03:18:52 10° SSE
Cosmos 1934 Rocket 3.9 03:08:08 37° SSW 03:10:47 84° W 03:16:58 10° N
NPP 3.7 03:05:53 10° N 03:11:15 69° WNW 03:13:04 41° SW
Cosmos 1954 Rocket 3.9 03:07:22 10° NNW 03:12:28 62° WSW 03:13:59 43° SSW
Meteor 2-4 Rocket 4.3 03:08:37 10° N 03:13:53 52° ENE 03:18:18 14° SSE
Okean 1 Rocket 3.6 03:16:19 39° W 03:16:57 42° WNW 03:21:13 10° N
CBERS 1 LM4 rocket 4.3 03:13:02 10° NNE 03:17:56 88° ESE 03:19:36 41° SSW
Cosmos 1315 Rocket 4.3 03:19:38 20° SE 03:21:43 32° E 03:25:20 10° NNE
Okean 1-7 Rocket 4.1 03:19:25 10° NNW 03:23:44 42° W 03:24:24 39° WSW
CZ-2D R/B 3.2 03:19:50 10° NNE 03:24:59 41° E 03:28:56 16° SSE
SAR-Lupe-3 4.5 03:25:22 46° SSE 03:26:20 82° ENE 03:29:55 10° N
ERS-2 2.5 03:23:54 10° N 03:27:30 48° WNW 03:28:00 44° W
Meteor 2-14 Rocket 4.4 03:27:36 32° SSW 03:30:29 68° W 03:36:33 10° N
Cosmos 1025 Rocket 2.9 03:27:14 10° NNW 03:31:32 74° W 03:33:09 37° S
Timation 2 Rocket 4.1 03:26:33 10° NNW 03:32:40 70° ENE 03:38:37 10° SSE
Cosmos 1023 Rocket 4.5 03:30:23 10° NNW 03:35:23 58° WSW 03:37:49 29° S
Cosmos 1833 Rocket 4.5 03:30:30 10° N 03:35:30 32° ENE 03:40:29 10° ESE
UNK 4.4 03:32:34 10° SSE 03:37:03 54° ENE 03:41:36 10° N
Okean O Rocket 3.9 03:35:27 10° NE 03:38:31 19° E 03:41:35 10° SE
Cosmos 1455 Rocket 3.5 03:36:21 24° SSE 03:38:53 61° E 03:43:16 10° NNE
ARIANE 5 R/B 2.5 03:34:55 10° NNE 03:39:56 76° ESE 03:42:55 25° S
Meteor 2-15 4.5 03:35:08 10° NNW 03:41:12 63° W 03:45:04 23° SSW
IRS-1C 4.5 03:37:00 10° N 03:42:11 52° WNW 03:44:44 28° SW
UNKNOWN OBJECT B 4.1 03:39:54 10° NNE 03:43:43 37° E 03:46:43 15° SSE
GP-B 4.4 03:44:12 10° NNW 03:47:47 24° W 03:48:48 22° W
Cosmos 1536 3.3 03:47:37 33° SW 03:48:52 45° W 03:52:47 10° N
Cosmos 1605 Rocket 4.1 03:47:06 26° SSW 03:50:38 58° W 03:56:50 10° N
Cosmos 1356 3.7 03:50:06 39° SW 03:51:07 55° WNW 03:54:37 10° N
Okean 2 3.3 03:48:32 10° N 03:52:40 87° WSW 03:55:30 19° S
Cosmos 1844 Rocket 4.0 03:49:51 17° W 03:52:57 27° NW 03:57:45 10° N
Cosmos 2123 Rocket 4.4 03:50:39 10° NNW 03:56:39 45° W 04:00:32 21° SSW
Cosmos 1140 Rocket 4.1 03:52:27 10° NW 03:57:06 36° W 03:59:21 24° SSW
SL-16 R/B 2.5 03:51:33 10° SSE 03:57:47 84° WSW 04:04:03 10° NNW
Resurs 1-4 Rocket 2.1 03:53:44 10° NNE 03:59:05 84° ESE 04:03:07 18° SSW
ATLAS 2A CENTAUR R/B 4.1 03:54:19 21° SW 03:59:14 35° S 04:30:55 10° ESE
Cosmos 1331 Rocket 4.3 03:55:39 18° S 03:59:32 62° ESE 04:04:41 10° NNE
EO 1 Del DPAF 3.2 03:59:24 16° S 04:02:25 78° WSW 04:06:19 10° NNW
Cosmos 1544 Rocket 4.0 04:02:40 25° SW 04:04:51 47° W 04:09:06 10° N
ADEOS 4.4 04:01:24 10° N 04:06:11 37° WNW 04:09:11 20° WSW
COSMOS 2487 3.9 04:06:29 10° NW 04:09:15 21° W 04:09:22 21° WSW
Cosmos 1633 3.9 04:10:16 21° WSW 04:11:24 25° WNW 04:14:27 10° NNW
ATLAS 5 CENTAUR R/B 2.5 04:07:31 10° NW 04:13:29 57° WSW 04:19:47 10° SSE
USA 161 3.4 04:20:43 16° W 04:20:43 16° W 04:22:34 10° NW
USA 129 3.1 04:19:20 10° SSE 04:21:18 37° ENE 04:23:12 10° N
Cosmos 2278 Rocket 3.3 04:18:39 15° WSW 04:22:31 31° WNW 04:27:33 10° N
Cosmos 2297 4.0 04:20:31 17° SW 04:24:46 56° WNW 04:30:24 10° NNE
Cosmos 2173 Rocket 3.9 04:19:29 10° S 04:25:29 79° W 04:31:42 10° N
Centaur AC-125 4.4 04:25:53 10° S 04:26:57 11° SSE 04:28:29 10° SSE
Cosmos 1400 Rocket 4.3 04:26:04 16° WSW 04:27:57 21° WNW 04:31:01 10° NNW
CZ-2C R/B 4.1 04:24:03 10° SSE 04:28:46 73° ENE 04:33:33 10° N
Cosmos 2285 Rocket 4.4 04:27:20 10° S 04:33:30 64° ESE 04:39:46 10° NNE
CZ-2D R/B 3.4 04:32:51 10° N 04:36:51 69° WNW 04:40:55 10° SSW
Cosmos 1459 Rocket 4.1 04:31:37 10° SSW 04:37:53 61° W 04:44:07 10° N
Cosmos 1302 Rocket 4.1 04:33:47 10° SSW 04:38:59 84° ESE 04:44:15 10° NNE
Cosmos 1802 Rocket 4.0 04:35:02 10° SSW 04:41:07 68° W 04:47:15 10° N
Cosmos 2082 Rocket 2.3 04:36:14 10° NNW 04:41:51 58° WSW 04:47:24 10° S
CZ-4B R/B 3.5 04:36:25 10° NNE 04:42:07 74° ESE 04:47:44 10° S
BREEZE-M DEB (TANK) 1.7 04:42:39 13° WSW 04:45:00 90° N 04:48:20 10° ENE
USA 234 4.0 04:42:06 10° S 04:47:31 28° SW 04:52:58 10° WNW
Cosmos 2100 Rocket 4.4 04:43:05 10° SSW 04:49:03 47° WNW 04:55:09 10° N
Cosmos 1825 Rocket 4.1 04:48:40 10° N 04:53:00 61° E 04:57:21 10° SSE
PSLV R/B 3.7 04:51:38 11° SW 04:54:46 48° SSE 04:58:01 10° E
Cosmos 2084 3.8 04:54:19 10° SSW 04:58:05 52° ESE 05:01:49 10° NE
Cosmos 1743 3.1 04:54:31 10° S 04:58:18 64° E 05:02:05 10° NNE
SME Rocket 4.4 04:56:26 10° SW 04:59:10 19° W 05:02:09 10° NW
Cosmos 1726 Rocket 4.4 04:55:17 10° S 04:59:35 52° E 05:03:51 10° NNE
Cosmos 1602 Rocket 4.3 04:56:00 10° NNW 04:59:52 32° W 05:03:46 10° SSW
Cosmos 1500 3.3 04:56:05 10° SSW 04:59:56 63° W 05:03:49 10° N
Cosmos 1515 3.8 04:56:22 10° NNW 05:00:08 57° W 05:03:53 10° S
CENTAUR R/B 4.4 04:55:59 10° WNW 05:00:19 16° WSW 05:04:43 10° SW
Cosmos 1346 Rocket 3.1 04:58:58 10° NNW 05:02:53 48° W 05:06:44 10° S
ADEOS Rocket 4.5 04:59:12 10° NNE 05:04:13 34° E 05:09:32 10° SSE
CZ-2D R/B 3.4 05:00:21 10° N 05:04:49 27° WNW 05:09:18 10° WSW
Okean-O 3.2 05:05:01 10° NNE 05:09:25 62° E 05:13:49 10° S
Cosmos 2058 Rocket 4.0 05:05:53 10° SSE 05:10:05 50° E 05:14:19 10° NNE
Cosmos 1066 Rocket 4.1 05:05:49 10° NNW 05:11:16 69° W 05:16:35 10° S
CZ-3B DEB 4.3 05:13:29 10° NW 05:39:05 81° SW 05:46:44 10° SE
